305  
ASUS42 KCHS 130625  
RWRCHS  
 
REGIONAL WEATHER ROUNDUP  
NATIONAL WEATHER SERVICE CHARLESTON SC  
200 AM EDT SAT AUG 13 2022  
 
NOTE: "FAIR" INDICATES FEW OR NO CLOUDS BELOW 12,000 FEET WITH NO  
SIGNIFICANT WEATHER AND/OR S TO VISIBILITY
.  
 
NOT ALL STATIONS ARE QUALITY CONTROLLED. USE DATA WITH CAUTION,  
ESPECIALLY DEWPOINT OBSERVATIONS.  
 
SCZ027-030-031-034>040-042>050-130700-   
..SOUTHEAST SOUTH CAROLINA
 
 
 
CITY SKY/WX TMP DP RH WIND PRES REMARKS
 
N CHARLESTON MOCLDY 72 71 97 N3 30.01F  
6HR MIN TEMP: 72; 6HR MAX TEMP: 74;  
 
WATERFRONT PRK N/A 75 71 87 N7 29.86F  
MOUNT PLEASANT CLOUDY 72 72 100 N3 30.00F  
JOHNS ISLAND MOCLDY 73 72 94 N6 30.00F  
PINOPOLIS N/A 73 72 94 E7 29.96S  
MONCKS CORNER MOCLDY 70 70 100 CALM 30.02F  
SUMMERVILLE FAIR 72 72 100 CALM 30.01F  
BEAUFORT MCAS RAIN 74 72 93 NE8 30.00S  
6HR MIN TEMP: 74; 6HR MAX TEMP: 77; 6HR PCP: TRACE;  
 
BEAUFORT ARPT LGT RAIN 73 73 100 N10 29.99F  
HILTON HEAD IS MOCLDY 75 73 94 CALM 30.00F  
WALTERBORO CLOUDY 70 70 100 N6 30.03S FOG  
ALLENDALE CLOUDY 72 72 100 CALM 30.02F FOG  
   
..SOUTHERN MIDLANDS AND PEE DEE
 
 
 
CITY SKY/WX TMP DP RH WIND PRES REMARKS
 
GEORGETOWN FAIR 70 70 100 N7 30.02F  
KINGSTREE MOCLDY 68 66 94 CALM 30.04F  
ORANGEBURG CLEAR 70 70 100 CALM 30.05F  
6HR MIN TEMP: 70; 6HR MAX TEMP: 75;  
 
BARNWELL CLOUDY 72 70 94 CALM 30.04F  
AIKEN FOG 71 70 98 E6 30.06F VSB 1  
MANNING FAIR 66 66 100 CALM 30.05S FOG  
COLUMBIA PTCLDY 73 70 90 NE5 30.05F  
6HR MIN TEMP: 72; 6HR MAX TEMP: 79;  
 
SUMTER CLEAR 69 68 94 CALM 30.04F  
6HR MIN TEMP: 69; 6HR MAX TEMP: 76;  
 
FLORENCE PTCLDY 69 68 96 NE6 30.06F  
6HR MIN TEMP: 68; 6HR MAX TEMP: 77;  
 
MYRTLE BEACH PTCLDY 71 70 96 N7 30.04F  
N MYRTLE BEACH PTCLDY 68 68 100 N5 30.04F  
6HR MIN TEMP: 68; 6HR MAX TEMP: 74;  
 

 
 
GAZ063-065-086>088-099>101-113>116-118-119-134>141-150-130700-   
..SOUTHEAST GEORGIA
 
 
 
CITY SKY/WX TMP DP RH WIND PRES REMARKS
 
SAVANNAH ARPT CLOUDY 74 71 91 CALM 30.00F  
6HR MIN TEMP: 74; 6HR MAX TEMP: 76; 6HR PCP: TRACE;  
 
HUNTER AAF CLOUDY 75 72 88 W8 29.97F  
6HR MIN TEMP: 74; 6HR MAX TEMP: 77; 6HR PCP: 0.04;  
 
FORT STEWART CLOUDY 74 72 93 CALM 29.97F  
6HR MIN TEMP: 74; 6HR MAX TEMP: 83; 6HR PCP: 0.31;  
 
STATESBORO CLOUDY 72 70 93 NE3 30.01F  
SYLVANIA CLOUDY 73 72 96 CALM 30.03F  
CLAXTON MOCLDY 75 74 96 CALM 30.00S  
MILLEN CLOUDY 72 71 95 NE5 30.03F  
METTER CLOUDY 73 N/A N/A CALM 30.01S  
REIDSVILLE NOT AVBL  
   
..CSRA, CENTRAL AND FAR SOUTHEAST GEORGIA
 
 
 
CITY SKY/WX TMP DP RH WIND PRES REMARKS
 
THOMSON CLOUDY 72 71 96 E3 30.04S  
AUGUSTA-BUSH CLOUDY 72 71 97 E5 30.03F  
6HR MIN TEMP: 70; 6HR MAX TEMP: 73; 6HR PCP: TRACE;  
 
AUGUSTA-DANIEL MOCLDY 72 71 97 E7 30.05S  
SWAINSBORO CLOUDY 72 72 100 NE3 30.03S FOG  
VIDALIA CLOUDY 73 72 94 NE5 30.01F  
EASTMAN FAIR 73 72 94 CALM 30.00F  
HAZLEHURST CLOUDY 74 73 96 CALM 29.99S  
ALMA CLOUDY 75 73 93 CALM 30.00F  
6HR MIN TEMP: 74; 6HR MAX TEMP: 82; 6HR PCP: TRACE;  
 
WAYCROSS CLOUDY 74 73 96 CALM 30.00F  
JESUP MOCLDY 72 70 94 CALM 30.03S  
BAXLEY CLOUDY 72 72 100 CALM 30.00S  
BRUNSWICK CLOUDY 75 73 91 S5 30.01F  
SAINT SIMONS CLOUDY 77 71 82 SW7 30.01F  
6HR MIN TEMP: 75; 6HR MAX TEMP: 80; 6HR PCP: TRACE;  
 

 
 
SCZ027-028-034-036>038-045-046-048>050-GAZ119-141-130700-   
..LAKE AND SUPPLEMENTAL COASTAL OBSERVATIONS
 
 
 
STATION/POSITION TIME TEMP WIND PRES WAVE SWELL
 
AIR SEA DIR/SP/G HT/PER HT/PER/DIR  
(UTC) (F) (DEG/KT/KT) (MB) (FT/S) (FT/S/D)  
WINYAH BAY 0545 72 360/ 3 1017.0F  
LAKE MURRAY 0620 72 30/ 3/ 5 N/A  
CHRLSTN HARBOR 0542 75 85 10/ 9/ 11 1015.1F  
ACE BASIN NERRS NOT AVBL  
FORT PULASKI 0542 76 85 280/ 5/ 8 1016.1F  
SAPELO ISLAND 0600 76 220/ 8 1016.0  
 

 
 
ANZ835-935-AMZ111-154-330-350-352-354-370-450-454-472-130700-   
..C-MAN AND BUOY OBSERVATIONS
 
 
 
STATION/POSITION TIME TEMP WIND PRES WAVE SWELL
 
AIR SEA DIR/SP/G HT/PER HT/PER/DIR  
(UTC) (F) (DEG/KT/KT) (MB) (FT/S) (FT/S/D)  
BUOY 41004 0610 81 84 240/ 14/ 19 1015.2  
BUOY 41008 0550 78 83 210/ 14/ 16 1015.7F 2/ 5 2/120/ 9  
FOLLY BEACH CMAN 0600 74 360/ 11/ 13 1016.2F  
CHAS PILOT BUOY 0508 79 80 230/ 6/ 12 1016.2F  
CHAS PILOT WAVE 0517 80 N/A 2/ 9  
CAPERS NEARSHORE 0508 76 83 10/ 12/ 16 1016.3F  
CAPERS NS WAVE NOT AVBL  
FRIPP NEARSHORE 0508 79 84 180/ 10/ 12 1015.6F  
 
 
STATION/POSITION TIME TEMP WIND PRES WAVE SWELL
 
AIR SEA DIR/SP/G HT/PER HT/PER/DIR  
(UTC) (F) (DEG/KT/KT) (MB) (FT/S) (FT/S/D)  
5E ST. MARYS GA 0530 81 N/A 2/ 4  
FRYING PAN BUOY 0610 77 50/ 10/ 12 1016.3  
BUOY 41025 0610 84 350/ 12/ 16 1016.0  
CAPE LOOKOUT NC 0600 72 350/ 12/ 12 1017.3F  
BUOY 41002 0610 81 85 CALM / 2 1015.5  
BUOY 41010 0610 84 86 200/ 6/ 8 1017.5  
ST AUGUSTINE FL 0600 76 79 140/ 8/ 8 1017.9F  
 

 
 
 
CLICK HERE TO GO TO PREVIOUS BULLETINS.

The Nexlab SC Page
The Nexlab GA Page Main Text Page